Pecos, TX

11:03 AM CST on February 27, 2017 (GMT -0600)
Pecos Municipal

Weather History for KPEQ - March, 2013

Change the Weather History Date:

Saturday, March 16, 2013

  Actual Average Record
Temperature  
Mean Temperature 65 °F -  
Max Temperature 91 °F 73 °F 94 °F (2011)
Min Temperature 39 °F 38 °F 22 °F (1962)
Growing Degree Days 15 (Base 50)    
Moisture  
Dew Point 20 °F    
Average Humidity 26    
Maximum Humidity 59    
Minimum Humidity 8    
Precipitation  
Precipitation 0.00 in - - ()
Sea Level Pressure  
Sea Level Pressure 29.81 in    
Wind  
Wind Speed 5 mph (SW)    
Max Wind Speed 28 mph    
Max Gust Speed 36 mph    
Visibility 10 miles    
Events      
Averages and records for this station are not official NWS values.
T = Trace of Precipitation, MM = Missing Value Source: NWS Daily Summary

Daily Weather History Graph

Daily Weather History Graph

Search for Another Location

Airport or City:

Trip Planner

Search our weather history database for the weather conditions in past years. The results will help you decide how hot, cold, wet, or windy it might be!

Date:

Astronomy

Mar. 16, 2013 Rise Set
Actual Time 8:02 AM CDT 8:03 PM CDT
Civil Twilight 7:38 AM CDT 8:27 PM CDT
Nautical Twilight 7:10 AM CDT 8:55 PM CDT
Astronomical Twilight 6:41 AM CDT 9:23 PM CDT
Moon 10:52 AM CDT (3/16) 12:00 AM CDT (3/16)
Length of Visible Light 12h 49m
Length of Day
12h 00m
Waxing Crescent, 23% of the Moon is Illuminated
Mar 16
Waxing Crescent
Mar 19
First Quarter
Mar 27
Full
Apr 2
Last Quarter
Apr 10
New

Hourly Weather History & Observations

Time (CDT) Temp. Windchill Dew Point Humidity Pressure Visibility Wind Dir Wind Speed Gust Speed Precip Events Conditions
12:15 AM 54.5 °F - 16.0 °F 22% 29.90 in 10.0 mi South 5.8 mph - N/A   Clear
12:35 AM 52.9 °F - 15.8 °F 23% 29.89 in 10.0 mi SSE 4.6 mph - N/A   Clear
12:55 AM 53.6 °F - 16.3 °F 23% 29.89 in 10.0 mi Calm Calm - N/A   Clear
1:15 AM 52.7 °F - 15.8 °F 23% 29.88 in 10.0 mi SSW 4.6 mph - N/A   Clear
1:35 AM 47.3 °F - 16.0 °F 29% 29.88 in 10.0 mi WSW 3.5 mph - N/A   Clear
1:55 AM 46.0 °F - 16.2 °F 30% 29.88 in 10.0 mi Calm Calm - N/A   Clear
2:15 AM 48.2 °F - 16.7 °F 29% 29.88 in 10.0 mi West 3.5 mph - N/A   Clear
2:35 AM 46.9 °F - 16.2 °F 29% 29.87 in 10.0 mi South 3.5 mph - N/A   Clear
2:55 AM 45.7 °F - 16.5 °F 31% 29.86 in 10.0 mi Calm Calm - N/A   Clear
3:15 AM 45.9 °F - 17.8 °F 33% 29.85 in 10.0 mi Calm Calm - N/A   Clear
3:35 AM 44.1 °F - 16.2 °F 33% 29.85 in 10.0 mi Calm Calm - N/A   Clear
3:55 AM 42.8 °F 40.1 °F 16.9 °F 35% 29.84 in 10.0 mi North 4.6 mph - N/A   Clear
4:15 AM 45.9 °F - 18.1 °F 33% 29.84 in 10.0 mi Calm Calm - N/A   Clear
4:35 AM 44.8 °F - 19.2 °F 36% 29.84 in 10.0 mi Calm Calm - N/A   Clear
4:55 AM 44.4 °F - 19.0 °F 36% 29.83 in 10.0 mi Calm Calm - N/A   Clear
5:15 AM 44.2 °F - 18.7 °F 36% 29.83 in 10.0 mi Calm Calm - N/A   Clear
5:35 AM 43.7 °F - 19.2 °F 38% 29.83 in 10.0 mi Calm Calm - N/A   Clear
5:55 AM 43.2 °F - 22.3 °F 44% 29.83 in 10.0 mi Calm Calm - N/A   Clear
6:15 AM 43.2 °F 40.5 °F 21.2 °F 42% 29.83 in 10.0 mi East 4.6 mph - N/A   Clear
6:35 AM 42.1 °F 39.2 °F 20.3 °F 42% 29.83 in 10.0 mi ESE 4.6 mph - N/A   Clear
6:55 AM 41.9 °F - 20.5 °F 42% 29.84 in 10.0 mi Calm Calm - N/A   Clear
7:15 AM 41.2 °F - 23.5 °F 50% 29.84 in 10.0 mi Calm Calm - N/A   Clear
7:35 AM 40.8 °F - 23.7 °F 51% 29.84 in 10.0 mi Calm Calm - N/A   Clear
7:55 AM 39.9 °F - 25.3 °F 56% 29.84 in 10.0 mi Calm Calm - N/A   Clear
8:15 AM 39.6 °F - 26.1 °F 58% 29.84 in 10.0 mi Calm Calm - N/A   Clear
8:35 AM 41.0 °F - 27.5 °F 59% 29.85 in 10.0 mi Calm Calm - N/A   Clear
8:55 AM 42.8 °F - 28.6 °F 57% 29.85 in 10.0 mi Calm Calm - N/A   Clear
9:15 AM 47.8 °F - 26.1 °F 43% 29.85 in 10.0 mi Calm Calm - N/A   Clear
9:35 AM 51.1 °F - 25.3 °F 37% 29.85 in 10.0 mi Calm Calm - N/A   Clear
9:55 AM 54.3 °F - 28.6 °F 37% 29.86 in 10.0 mi Calm Calm - N/A   Clear
10:15 AM 58.1 °F - 30.7 °F 35% 29.85 in 10.0 mi Calm Calm - N/A   Clear
10:35 AM 61.9 °F - 29.3 °F 29% 29.85 in 10.0 mi Calm Calm - N/A   Clear
10:55 AM 66.2 °F - 29.1 °F 25% 29.85 in 10.0 mi Calm Calm - N/A   Clear
11:15 AM 70.3 °F - 25.5 °F 19% 29.85 in 10.0 mi Calm Calm - N/A   Clear
11:55 AM 85.1 °F - 24.4 °F 11% 29.84 in 10.0 mi WSW 19.6 mph - N/A   Clear
12:15 PM 86.7 °F - 23.2 °F 10% 29.84 in 10.0 mi West 16.1 mph - N/A   Clear
12:35 PM 87.8 °F - 23.5 °F 10% 29.83 in 10.0 mi West 18.4 mph - N/A   Clear
12:55 PM 88.9 °F - 22.5 °F 9% 29.82 in 10.0 mi West 16.1 mph 25.3 mph N/A   Clear
1:55 PM 91.8 °F - 22.8 °F 8% 29.79 in 10.0 mi West 27.6 mph 35.7 mph N/A   Clear
2:35 PM 87.8 °F - 20.1 °F 8% 29.77 in 10.0 mi West 21.9 mph 28.8 mph N/A   Clear
3:15 PM 89.4 °F - 20.7 °F 8% 29.75 in 10.0 mi SW 24.2 mph 32.2 mph N/A   Clear
3:55 PM 90.1 °F - 20.5 °F 8% 29.73 in 10.0 mi WSW 19.6 mph 34.5 mph N/A   Clear
4:35 PM 89.6 °F - 19.4 °F 8% 29.72 in 10.0 mi WSW 19.6 mph 26.5 mph N/A   Clear
4:55 PM 89.1 °F - 19.6 °F 8% 29.71 in 10.0 mi WSW 18.4 mph 26.5 mph N/A   Clear
6:15 PM 86.9 °F - 18.5 °F 8% 29.70 in 10.0 mi West 19.6 mph 23.0 mph N/A   Clear
6:35 PM 84.2 °F - 16.7 °F 8% 29.69 in 10.0 mi West 15.0 mph - N/A   Clear
6:55 PM 85.5 °F - 17.2 °F 8% 29.70 in 10.0 mi West 16.1 mph - N/A   Clear
7:55 PM 79.3 °F - 17.6 °F 10% 29.71 in 10.0 mi West 12.7 mph - N/A   Clear
8:55 PM 67.5 °F - 14.2 °F 13% 29.72 in 10.0 mi WSW 10.4 mph - N/A   Clear
9:15 PM 68.4 °F - 14.5 °F 13% 29.72 in 10.0 mi WSW 10.4 mph - N/A   Clear
9:35 PM 67.5 °F - 14.4 °F 13% 29.72 in 10.0 mi SW 10.4 mph - N/A   Clear
10:15 PM 62.4 °F - 15.1 °F 16% 29.72 in 10.0 mi Calm Calm - N/A   Clear
10:35 PM 60.4 °F - 13.5 °F 16% 29.73 in 10.0 mi SSW 10.4 mph - N/A   Clear
10:55 PM 58.3 °F - 13.3 °F 17% 29.73 in 10.0 mi SSW 9.2 mph - N/A   Clear
11:15 PM 58.5 °F - 13.5 °F 17% 29.73 in 10.0 mi SSW 10.4 mph - N/A   Clear
11:35 PM 60.1 °F - 13.8 °F 16% 29.73 in 10.0 mi SSW 10.4 mph - N/A   Clear
11:55 PM 58.5 °F - 13.1 °F 17% 29.73 in 10.0 mi SSW 10.4 mph - N/A   Clear